Ana Sayfa
METAR-TAF:

METAR-TAF

Havaalanları :

Kaiser Lake Ozark, Missouri, Amerika Birleşik Devletleri

Enlem: 38-06N, Boylam: 092-33W, yükseklik: 265 m

Güncel hava durumu gözlemi

Rapor saat 20:56 UTC de 47 dakika önce yapıldı.
Rüzgar doğu/güneydoğudan 8 kt
Sıcaklık 31°C
Nem 55%
Basınç 1024 hPa
Görüş mesafesi: 16.1 km
Açık gökyüzü

METAR: KAIZ 202056Z AUTO 12008KT 10SM CLR 31/21 A3025 RMK AO2 SLP236 6//// T03060206 58013 PNO $

Saat: 16:43 (21:43 UTC)


TAF: eksik

4.000'den fazla havaalanı için hava durumu gözlemleri ve tahminleri (METAR ve TAF raporları).

Kullanılabilir istasyonlar harita üzerinde sarı ve kırmızı noktalarla gösterilir.

İstasyonun adını görmek için fareyi noktanın üzerinde gezdirin.

Sonrasında hava gözlem ve tahminlerini görmek için tıklayın.

Haritayı değiştirmek için: yaklaştırmak için siyah artı işaretli yeşil düğmeye ve uzaklaştırmak için de eksi işaretli düğmeye hızla tıklayın; bitişik haritalar için yeşil okları kullanın.


METAR-TAF: